Location: Austin
(30.3000°N, 97.7500°W)
Time: 23:45:34
(UTC-05:00)

Skynet4D Del rocket - Pass Details

Date: 05 September 2024
Orbit: 763 x 1289 km, 26.9° (Epoch: 14 September)

Event Time Altitude Azimuth Distance (km) Brightness Sun altitude
Rises 22:02:28 0° 254° (WSW) 4,221 8.0 -28.5°
Reaches altitude 10° 22:05:24 10° 251° (WSW) 3,274 7.2 -29.0°
Maximum altitude 22:13:40 65° 172° (S) 1,383 4.5 -30.6°
Enters shadow 22:13:46 65° 167° (SSE) 1,383 4.5 -30.6°
